Flag for U.S.A. Weather past 2 weeks in Canton, Ohio, U.S.A.

Now
56 °F

Scattered clouds.


Feels Like: 53 °F
Forecast: 41 / 60 °F
Wind: 10 mph from East

Location: Akron-Canton Regional Airport


UV Index: 5 (Moderate)

Visibility: 10 mi


Pressure: 30.39 "Hg

Humidity: 34%

Dew point: 28 °F

Location of CantonLocation

Historic Weather in Canton

°F

Canton temperature yesterday

Maximum temperature yesterday: 70 °F (at 4:51 PM)
Minimum temperature yesterday: 46 °F (at 6:51 AM)
Average temperature yesterday: 56 °F

Past Weeks' High & Low Weather Summary

 TemperatureHumidityPressure
High80 °F (Apr 13, 4:51 PM)97% (Apr 7, 10:51 PM)30.50 "Hg (Apr 7, 10:51 PM)
Low21 °F (Apr 16, 5:51 AM)21% (Apr 12, 3:51 PM)29.33 "Hg (Apr 8, 1:51 AM)
Average50 °F59%29.99 "Hg
* Reported Apr 4 10:51 AM — Apr 19 10:51 AM, Canton, Weather by CustomWeather, © 2014

Note: Actual official high and low records may vary slightly from our data, if they occured in-between our weather recording intervals... More about our weather records

Advertising

Historic Weather Conditions — Data for Previous 24 hours

 ConditionsComfort  
Time TempWeatherWind HumidityBarometerVisibility
10:51 AM
Apr 19
51 °FScattered clouds.10 mph45%30.40 "Hg10 mi
9:51 AM47 °FPassing clouds.10 mph54%30.41 "Hg10 mi
8:51 AM41 °FPassing clouds.9 mph76%30.40 "Hg8 mi
7:51 AM39 °FPassing clouds.9 mph89%30.38 "Hg7 mi
6:51 AM39 °FPassing clouds.9 mph89%30.34 "Hg7 mi
5:51 AM41 °FPassing clouds.9 mph86%30.31 "Hg10 mi
4:51 AM43 °FPassing clouds.9 mph86%30.30 "Hg10 mi
3:51 AM44 °FPassing clouds.9 mph89%30.28 "Hg10 mi
2:51 AM46 °FPassing clouds.9 mph83%30.28 "Hg10 mi
1:51 AM46 °FPassing clouds.8 mph83%30.27 "Hg10 mi
12:51 AM48 °FPassing clouds.8 mph77%30.28 "Hg10 mi
11:51 PM
Apr 18
52 °FPassing clouds.9 mph66%30.26 "Hg10 mi
10:51 PM54 °FPassing clouds.6 mph59%30.24 "Hg10 mi
9:51 PM55 °FClear.6 mph55%30.24 "Hg10 mi
8:51 PM58 °FScattered clouds.No wind50%30.23 "Hg10 mi
7:51 PM62 °FPartly sunny.6 mph43%30.21 "Hg10 mi
6:51 PM66 °FPartly sunny.5 mph38%30.22 "Hg10 mi
5:51 PM68 °FMostly cloudy.8 mph30%30.22 "Hg10 mi
4:51 PM70 °FPartly sunny.9 mph29%30.22 "Hg10 mi
3:51 PM69 °FBroken clouds.9 mph28%30.23 "Hg10 mi
2:51 PM67 °FBroken clouds.13 mph32%30.24 "Hg10 mi
1:51 PM65 °FBroken clouds.8 mph34%30.25 "Hg10 mi
12:51 PM62 °FBroken clouds.7 mph35%30.26 "Hg10 mi
Weather by CustomWeather, © 2014

See weather overview